Location: Fours
(44.3167°N, 6.7000°E)
Time: 07:34:17
(UTC+00:00)

Cosmos 1328 Rocket - Visible Passes

Search period start: 14 April 2021 00:00
Search period end: 24 April 2021 00:00
Orbit: 602 x 626 km, 82.5° (Epoch: 13 April)

Date Brightness Start Highest point End Pass type
(mag) Time Alt. Az. Time Alt. Az. Time Alt. Az.
14 Apr 6.1 00:53:40 17° NNW 00:53:40 17° NNW 00:54:54 10° NNW visible
14 Apr 6.3 23:32:13 16° NNE 23:32:13 16° NNE 23:33:13 10° NNE visible
15 Apr 6.2 01:09:15 13° NW 01:09:15 13° NW 01:10:04 10° NNW visible
15 Apr 6.1 23:47:48 20° NNE 23:47:48 20° NNE 23:49:10 10° N visible
17 Apr 6.0 00:03:23 21° N 00:03:23 21° N 00:04:56 10° N visible
17 Apr 6.3 22:41:55 12° NE 22:41:55 12° NE 22:42:23 10° NE visible
18 Apr 6.0 00:18:57 19° NNW 00:18:57 19° NNW 00:20:28 10° N visible
18 Apr 6.1 22:57:28 17° NNE 22:57:28 17° NNE 22:58:39 10° NNE visible
19 Apr 6.1 00:34:30 15° NW 00:34:30 15° NW 00:35:42 10° NNW visible
19 Apr 5.8 23:13:01 22° NNE 23:13:01 22° NNE 23:14:39 10° NNE visible
20 Apr 6.4 00:50:03 10° NW 00:50:03 10° NW 00:50:11 10° NW visible
20 Apr 5.7 23:28:33 24° N 23:28:33 24° N 23:30:25 10° N visible
21 Apr 6.1 22:07:02 13° NE 22:07:02 13° NE 22:07:45 10° NE visible
21 Apr 5.8 23:44:04 22° NNW 23:44:04 22° NNW 23:46:01 10° N visible
22 Apr 5.8 22:22:33 20° NE 22:22:33 20° NE 22:24:05 10° NNE visible
22 Apr 6.0 23:59:35 17° NW 23:59:35 17° NW 00:01:19 10° NNW visible
23 Apr 5.4 22:38:02 27° NNE 22:38:02 27° NNE 22:40:06 10° NNE visible
